| time (UTC) | temp F | wind direction | speed MPH | gust MPH | rain 1hr in | rain 24hr in | rain mn in | humidity % | barometer mb |
| 20260507185120 | 63 | 126 | 0.0 | 2.0 | 0.00 | 0.18 | 0.18 | 63 | 1004.3 |
| 20260507184619 | 61 | 123 | 1.0 | 2.0 | 0.00 | 0.18 | 0.18 | 60 | 1004.5 |
| 20260507184116 | 62 | 97 | 1.0 | 2.0 | 0.00 | 0.18 | 0.18 | 62 | 1004.6 |
| 20260507183612 | 61 | 106 | 2.0 | 2.0 | 0.00 | 0.18 | 0.18 | 56 | 1004.8 |
| 20260507183109 | 61 | 123 | 0.0 | 2.0 | 0.00 | 0.18 | 0.18 | 58 | 1004.7 |
| 20260507182606 | 64 | 120 | 0.0 | 1.0 | 0.00 | 0.18 | 0.18 | 56 | 1005.0 |
| 20260507182102 | 63 | 127 | 0.0 | 2.0 | 0.00 | 0.18 | 0.18 | 56 | 1005.0 |
| 20260507181559 | 64 | 171 | 1.0 | 2.0 | 0.00 | 0.18 | 0.18 | 51 | 1004.8 |
| 20260507181055 | 63 | 146 | 0.0 | 2.0 | 0.00 | 0.18 | 0.18 | 58 | 1005.0 |
| 20260507180551 | 62 | 100 | 2.0 | 2.0 | 0.00 | 0.18 | 0.18 | 56 | 1004.9 |
| 20260507180048 | 60 | 131 | 0.0 | 1.0 | 0.00 | 0.18 | 0.18 | 60 | 1004.9 |
| 20260507175544 | 61 | 91 | 1.0 | 2.0 | 0.00 | 0.18 | 0.18 | 60 | 1005.3 |
| 20260507175042 | 60 | 161 | 1.0 | 2.0 | 0.00 | 0.18 | 0.18 | 59 | 1005.2 |
| 20260507174539 | 61 | 144 | 0.0 | 1.0 | 0.00 | 0.18 | 0.18 | 64 | 1005.4 |
| 20260507174037 | 60 | 150 | 1.0 | 2.0 | 0.00 | 0.18 | 0.18 | 57 | 1005.1 |
| 20260507173533 | 60 | 123 | 0.0 | 1.0 | 0.00 | 0.18 | 0.18 | 58 | 1005.2 |
| 20260507173031 | 61 | 199 | 0.0 | 1.0 | 0.00 | 0.18 | 0.18 | 58 | 1005.5 |
| 20260507172526 | 59 | 126 | 0.0 | 0.0 | 0.00 | 0.18 | 0.18 | 56 | 1005.9 |
| 20260507172024 | 59 | 126 | 0.0 | 2.0 | 0.00 | 0.18 | 0.18 | 57 | 1006.1 |
| 20260507171519 | 60 | 139 | 0.0 | 2.0 | 0.00 | 0.18 | 0.18 | 59 | 1005.5 |
| 20260507171017 | 61 | 111 | 1.0 | 2.0 | 0.00 | 0.18 | 0.18 | 56 | 1005.6 |
| 20260507170513 | 60 | 137 | 0.0 | 1.0 | 0.00 | 0.18 | 0.18 | 57 | 1005.9 |
| 20260507170010 | 59 | 155 | 1.0 | 1.0 | 0.00 | 0.18 | 0.18 | 56 | 1006.0 |
| 20260507165506 | 57 | 78 | 2.0 | 2.0 | 0.00 | 0.18 | 0.18 | 58 | 1005.9 |
| 20260507165003 | 59 | 82 | 2.0 | 2.0 | 0.00 | 0.18 | 0.18 | 63 | 1006.2 |
| 20260507164459 | 57 | 149 | 0.0 | 0.0 | 0.00 | 0.18 | 0.18 | 67 | 1006.0 |
| 20260507163955 | 56 | 112 | 0.0 | 0.0 | 0.00 | 0.18 | 0.18 | 70 | 1006.6 |
| 20260507163453 | 55 | 114 | 0.0 | 0.0 | 0.00 | 0.18 | 0.18 | 68 | 1006.6 |
| 20260507162950 | 54 | 114 | 0.0 | 0.0 | 0.00 | 0.18 | 0.18 | 67 | 1007.1 |
| 20260507162445 | 54 | 124 | 0.0 | 0.0 | 0.00 | 0.18 | 0.18 | 68 | 1007.1 |
| 20260507161943 | 54 | 124 | 0.0 | 0.0 | 0.00 | 0.18 | 0.18 | 71 | 1007.1 |
| 20260507161439 | 54 | 124 | 0.0 | 0.0 | 0.00 | 0.18 | 0.18 | 69 | 1007.0 |
| 20260507160935 | 54 | 123 | 0.0 | 0.0 | 0.00 | 0.18 | 0.18 | 68 | 1006.9 |
| 20260507160432 | 53 | 124 | 0.0 | 0.0 | 0.00 | 0.18 | 0.18 | 72 | 1007.1 |
| 20260507155927 | 53 | 124 | 0.0 | 0.0 | 0.00 | 0.18 | 0.18 | 73 | 1006.9 |
| 20260507155424 | 53 | 123 | 0.0 | 0.0 | 0.00 | 0.18 | 0.18 | 70 | 1007.1 |
| 20260507154921 | 53 | 117 | 0.0 | 0.0 | 0.00 | 0.18 | 0.18 | 70 | 1007.0 |
| 20260507154417 | 53 | 115 | 0.0 | 1.0 | 0.00 | 0.18 | 0.18 | 71 | 1007.1 |
| 20260507153915 | 53 | 110 | 0.0 | 1.0 | 0.00 | 0.18 | 0.18 | 76 | 1007.0 |
| 20260507153412 | 52 | 109 | 0.0 | 1.0 | 0.00 | 0.18 | 0.18 | 73 | 1006.8 |
| 20260507152908 | 52 | 117 | 0.0 | 1.0 | 0.00 | 0.18 | 0.18 | 73 | 1007.0 |
| 20260507152404 | 51 | 93 | 1.0 | 2.0 | 0.00 | 0.18 | 0.18 | 76 | 1006.9 |
| 20260507151900 | 51 | 122 | 0.0 | 0.0 | 0.00 | 0.18 | 0.18 | 74 | 1007.2 |
| 20260507151356 | 51 | 107 | 0.0 | 0.0 | 0.00 | 0.18 | 0.18 | 76 | 1007.1 |
| 20260507150854 | 51 | 108 | 0.0 | 0.0 | 0.00 | 0.18 | 0.18 | 74 | 1007.2 |
| 20260507150350 | 51 | 114 | 0.0 | 0.0 | 0.00 | 0.18 | 0.18 | 73 | 1007.2 |
| 20260507145847 | 51 | 114 | 0.0 | 0.0 | 0.00 | 0.18 | 0.18 | 73 | 1007.2 |
| 20260507145343 | 50 | 113 | 0.0 | 0.0 | 0.00 | 0.18 | 0.18 | 75 | 1007.3 |
| 20260507144840 | 50 | 109 | 0.0 | 0.0 | 0.00 | 0.18 | 0.18 | 76 | 1007.2 |
| 20260507144337 | 50 | 110 | 0.0 | 0.0 | 0.00 | 0.18 | 0.18 | 77 | 1007.7 |
| 20260507143834 | 50 | 110 | 0.0 | 0.0 | 0.00 | 0.18 | 0.18 | 76 | 1007.9 |
| 20260507143331 | 50 | 110 | 0.0 | 0.0 | 0.00 | 0.18 | 0.18 | 76 | 1007.7 |
| 20260507142827 | 50 | 126 | 0.0 | 0.0 | 0.00 | 0.18 | 0.18 | 78 | 1007.7 |
| 20260507142323 | 50 | 113 | 0.0 | 0.0 | 0.00 | 0.18 | 0.18 | 79 | 1008.1 |
| 20260507141820 | 50 | 103 | 1.0 | 2.0 | 0.00 | 0.18 | 0.18 | 77 | 1007.9 |
| 20260507141317 | 50 | 113 | 0.0 | 0.0 | 0.00 | 0.18 | 0.18 | 78 | 1008.0 |
| 20260507140814 | 50 | 107 | 0.0 | 1.0 | 0.00 | 0.18 | 0.18 | 79 | 1008.2 |
| 20260507140310 | 50 | 115 | 1.0 | 2.0 | 0.00 | 0.18 | 0.18 | 78 | 1008.1 |
| 20260507135808 | 50 | 112 | 0.0 | 0.0 | 0.00 | 0.18 | 0.18 | 79 | 1008.0 |
| 20260507135306 | 50 | 126 | 0.0 | 5.0 | 0.00 | 0.18 | 0.18 | 74 | 1008.0 |
| 20260507134802 | 50 | 94 | 0.0 | 3.0 | 0.00 | 0.18 | 0.18 | 77 | 1008.0 |
| 20260507134258 | 50 | 104 | 1.0 | 5.0 | 0.00 | 0.18 | 0.18 | 75 | 1008.0 |
| 20260507133754 | 49 | 118 | 1.0 | 3.0 | 0.00 | 0.18 | 0.18 | 77 | 1008.0 |
| 20260507133250 | 49 | 119 | 1.0 | 3.0 | 0.00 | 0.18 | 0.18 | 77 | 1008.1 |
| 20260507132749 | 49 | 128 | 0.0 | 3.0 | 0.00 | 0.18 | 0.18 | 78 | 1008.1 |
| 20260507132245 | 49 | 200 | 2.0 | 2.0 | 0.00 | 0.18 | 0.18 | 80 | 1008.1 |
| 20260507131742 | 50 | 147 | 0.0 | 7.0 | 0.00 | 0.18 | 0.18 | 78 | 1007.9 |
| 20260507131239 | 50 | 134 | 0.0 | 5.0 | 0.00 | 0.18 | 0.18 | 78 | 1008.1 |
| 20260507130735 | 50 | 120 | 0.0 | 3.0 | 0.00 | 0.18 | 0.18 | 79 | 1008.1 |
| 20260507130233 | 50 | 117 | 1.0 | 3.0 | 0.00 | 0.18 | 0.18 | 80 | 1008.1 |
| 20260507125731 | 50 | 105 | 1.0 | 6.0 | 0.00 | 0.18 | 0.18 | 83 | 1008.0 |
| 20260507125229 | 50 | 117 | 0.0 | 1.0 | 0.00 | 0.18 | 0.18 | 84 | 1008.1 |
| 20260507124725 | 50 | 127 | 0.0 | 3.0 | 0.00 | 0.18 | 0.18 | 84 | 1008.1 |
| 20260507124222 | 50 | 125 | 0.0 | 1.0 | 0.00 | 0.18 | 0.18 | 84 | 1007.9 |
| 20260507123721 | 50 | 109 | 1.0 | 2.0 | 0.00 | 0.18 | 0.18 | 84 | 1007.9 |
| 20260507123218 | 50 | 109 | 0.0 | 3.0 | 0.00 | 0.18 | 0.18 | 81 | 1008.2 |
| 20260507122713 | 50 | 152 | 1.0 | 2.0 | 0.00 | 0.18 | 0.18 | 83 | 1007.8 |
| 20260507122209 | 50 | 126 | 0.0 | 0.0 | 0.00 | 0.18 | 0.18 | 86 | 1007.6 |
| 20260507121705 | 50 | 120 | 1.0 | 3.0 | 0.00 | 0.18 | 0.18 | 83 | 1007.3 |
| 20260507121201 | 50 | 114 | 0.0 | 3.0 | 0.00 | 0.18 | 0.18 | 86 | 1007.8 |
| 20260507120657 | 50 | 128 | 0.0 | 2.0 | 0.00 | 0.18 | 0.18 | 86 | 1007.3 |
| 20260507120154 | 50 | 120 | 0.0 | 2.0 | 0.00 | 0.18 | 0.18 | 88 | 1007.4 |
| 20260507115651 | 50 | 183 | 1.0 | 2.0 | 0.00 | 0.18 | 0.18 | 86 | 1007.6 |
| 20260507115146 | 50 | 119 | 0.0 | 2.0 | 0.00 | 0.18 | 0.18 | 89 | 1007.4 |
| 20260507114642 | 50 | 135 | 1.0 | 2.0 | 0.00 | 0.18 | 0.18 | 90 | 1007.4 |
| 20260507114140 | 50 | 128 | 0.0 | 1.0 | 0.00 | 0.18 | 0.18 | 90 | 1007.4 |
| 20260507113637 | 50 | 107 | 1.0 | 2.0 | 0.00 | 0.18 | 0.18 | 89 | 1007.6 |
| 20260507113133 | 50 | 118 | 1.0 | 2.0 | 0.00 | 0.18 | 0.18 | 89 | 1007.6 |
| 20260507112632 | 51 | 123 | 0.0 | 2.0 | 0.00 | 0.18 | 0.18 | 89 | 1007.3 |
| 20260507112128 | 51 | 117 | 1.0 | 1.0 | 0.00 | 0.18 | 0.18 | 89 | 1007.2 |
| 20260507111625 | 51 | 117 | 0.0 | 0.0 | 0.00 | 0.18 | 0.18 | 89 | 1007.1 |
| 20260507111122 | 51 | 112 | 0.0 | 0.0 | 0.00 | 0.18 | 0.18 | 90 | 1007.1 |
| 20260507110618 | 50 | 114 | 0.0 | 1.0 | 0.00 | 0.18 | 0.18 | 89 | 1006.9 |
| 20260507110115 | 50 | 115 | 0.0 | 2.0 | 0.00 | 0.18 | 0.18 | 90 | 1007.0 |
| 20260507105612 | 50 | 113 | 0.0 | 2.0 | 0.00 | 0.18 | 0.18 | 90 | 1006.9 |
| 20260507105107 | 51 | 108 | 0.0 | 0.0 | 0.00 | 0.18 | 0.18 | 90 | 1006.7 |
| 20260507104606 | 51 | 120 | 1.0 | 1.0 | 0.00 | 0.18 | 0.18 | 89 | 1006.9 |
| 20260507104102 | 51 | 109 | 0.0 | 2.0 | 0.00 | 0.18 | 0.18 | 90 | 1006.8 |
| 20260507103558 | 51 | 108 | 0.0 | 0.0 | 0.00 | 0.18 | 0.18 | 89 | 1007.1 |
| 20260507103055 | 51 | 120 | 0.0 | 0.0 | 0.00 | 0.18 | 0.18 | 89 | 1006.9 |
| 20260507102551 | 51 | 105 | 0.0 | 0.0 | 0.00 | 0.18 | 0.18 | 88 | 1006.8 |
| 20260507102047 | 51 | 140 | 0.0 | 0.0 | 0.00 | 0.18 | 0.18 | 86 | 1006.7 |
| 20260507101542 | 51 | 119 | 0.0 | 1.0 | 0.00 | 0.18 | 0.18 | 83 | 1006.7 |
| 20260507101039 | 51 | 116 | 0.0 | 0.0 | 0.00 | 0.18 | 0.18 | 83 | 1006.4 |
| 20260507100537 | 51 | 120 | 0.0 | 1.0 | 0.00 | 0.18 | 0.18 | 83 | 1006.8 |
| 20260507100035 | 51 | 119 | 0.0 | 0.0 | 0.00 | 0.18 | 0.18 | 83 | 1006.6 |
| 20260507095532 | 51 | 105 | 0.0 | 1.0 | 0.00 | 0.18 | 0.18 | 84 | 1006.5 |
| 20260507095029 | 51 | 128 | 1.0 | 1.0 | 0.00 | 0.18 | 0.18 | 83 | 1006.3 |
| 20260507094525 | 51 | 115 | 0.0 | 1.0 | 0.00 | 0.18 | 0.18 | 83 | 1006.4 |
| 20260507094022 | 52 | 95 | 1.0 | 1.0 | 0.00 | 0.18 | 0.18 | 82 | 1006.3 |
| 20260507093519 | 52 | 141 | 0.0 | 2.0 | 0.00 | 0.18 | 0.18 | 80 | 1006.3 |
| 20260507093018 | 52 | 136 | 1.0 | 3.0 | 0.00 | 0.18 | 0.18 | 80 | 1006.4 |
| 20260507092514 | 52 | 136 | 1.0 | 5.0 | 0.00 | 0.18 | 0.18 | 79 | 1006.1 |
| 20260507092011 | 52 | 123 | 0.0 | 2.0 | 0.00 | 0.18 | 0.18 | 80 | 1006.1 |
| 20260507091508 | 52 | 130 | 0.0 | 1.0 | 0.00 | 0.18 | 0.18 | 82 | 1006.4 |
| 20260507091004 | 52 | 135 | 0.0 | 0.0 | 0.00 | 0.18 | 0.18 | 83 | 1006.4 |
| 20260507090500 | 52 | 137 | 0.0 | 5.0 | 0.00 | 0.18 | 0.18 | 83 | 1006.1 |
| 20260507085956 | 52 | 147 | 1.0 | 3.0 | 0.00 | 0.18 | 0.18 | 83 | 1006.3 |
| 20260507085454 | 52 | 137 | 0.0 | 5.0 | 0.00 | 0.18 | 0.18 | 84 | 1006.0 |
| 20260507084950 | 52 | 144 | 1.0 | 2.0 | 0.00 | 0.18 | 0.18 | 84 | 1006.0 |
| 20260507084447 | 51 | 155 | 1.0 | 5.0 | 0.00 | 0.18 | 0.18 | 86 | 1005.7 |
| 20260507083944 | 51 | 149 | 1.0 | 2.0 | 0.00 | 0.18 | 0.18 | 87 | 1006.1 |
| 20260507083440 | 51 | 132 | 0.0 | 6.0 | 0.00 | 0.18 | 0.18 | 88 | 1006.1 |
| 20260507082937 | 51 | 137 | 0.0 | 3.0 | 0.00 | 0.18 | 0.18 | 87 | 1006.2 |
| 20260507082433 | 51 | 157 | 1.0 | 3.0 | 0.00 | 0.18 | 0.18 | 88 | 1006.4 |
| 20260507081930 | 51 | 111 | 0.0 | 1.0 | 0.00 | 0.18 | 0.18 | 88 | 1006.1 |
| 20260507081426 | 51 | 120 | 0.0 | 2.0 | 0.00 | 0.18 | 0.18 | 88 | 1006.7 |
| 20260507080923 | 51 | 166 | 1.0 | 8.0 | 0.00 | 0.18 | 0.18 | 87 | 1006.1 |
| 20260507080419 | 51 | 110 | 1.0 | 8.0 | 0.00 | 0.18 | 0.18 | 86 | 1005.8 |
| 20260507075914 | 51 | 199 | 4.0 | 8.0 | 0.00 | 0.18 | 0.18 | 90 | 1005.7 |
| 20260507075411 | 51 | 202 | 2.0 | 7.0 | 0.00 | 0.18 | 0.18 | 91 | 1005.7 |
| 20260507074908 | 51 | 148 | 4.0 | 5.0 | 0.00 | 0.18 | 0.18 | 91 | 1005.8 |
| 20260507074404 | 51 | 146 | 1.0 | 7.0 | 0.00 | 0.18 | 0.18 | 92 | 1005.8 |
| 20260507073902 | 51 | 208 | 2.0 | 9.0 | 0.00 | 0.18 | 0.18 | 95 | 1005.4 |
| 20260507073358 | 51 | 157 | 2.0 | 3.0 | 0.00 | 0.18 | 0.18 | 96 | 1005.5 |
| 20260507072855 | 51 | 163 | 4.0 | 6.0 | 0.00 | 0.18 | 0.18 | 97 | 1005.1 |
| 20260507072353 | 51 | 115 | 0.0 | 1.0 | 0.00 | 0.18 | 0.18 | 97 | 1005.3 |
| 20260507071850 | 51 | 127 | 0.0 | 0.0 | 0.00 | 0.18 | 0.18 | 98 | 1005.6 |
| 20260507071348 | 51 | 143 | 0.0 | 2.0 | 0.00 | 0.18 | 0.18 | 98 | 1005.2 |
| 20260507070843 | 51 | 114 | 0.0 | 6.0 | 0.00 | 0.18 | 0.18 | 98 | 1005.2 |
| 20260507070341 | 51 | 107 | 0.0 | 3.0 | 0.00 | 0.18 | 0.18 | 99 | 1004.9 |
| 20260507065838 | 51 | 112 | 0.0 | 2.0 | 0.00 | 0.18 | 0.18 | 99 | 1005.0 |
| 20260507065334 | 51 | 95 | 1.0 | 2.0 | 0.00 | 0.18 | 0.18 | 99 | 1005.2 |
| 20260507064831 | 51 | 131 | 1.0 | 1.0 | 0.00 | 0.18 | 0.18 | 99 | 1005.2 |
| 20260507064330 | 51 | 117 | 0.0 | 2.0 | 0.00 | 0.18 | 0.18 | 99 | 1005.4 |
| 20260507063827 | 51 | 86 | 1.0 | 2.0 | 0.00 | 0.18 | 0.18 | 99 | 1005.5 |
| 20260507063324 | 51 | 108 | 0.0 | 3.0 | 0.00 | 0.18 | 0.18 | 99 | 1005.4 |
| 20260507062821 | 52 | 92 | 1.0 | 2.0 | 0.00 | 0.18 | 0.18 | 99 | 1005.6 |
| 20260507062318 | 52 | 108 | 1.0 | 2.0 | 0.00 | 0.18 | 0.18 | 99 | 1005.2 |
| 20260507061816 | 52 | 101 | 2.0 | 2.0 | 0.00 | 0.18 | 0.18 | 99 | 1005.4 |
| 20260507061313 | 52 | 90 | 1.0 | 2.0 | 0.00 | 0.18 | 0.18 | 99 | 1005.5 |
| 20260507060812 | 52 | 78 | 0.0 | 2.0 | 0.07 | 0.18 | 0.18 | 99 | 1005.5 |
| 20260507060308 | 52 | 131 | 1.0 | 6.0 | 0.07 | 0.18 | 0.18 | 99 | 1005.3 |
| 20260507055805 | 52 | 105 | 1.0 | 5.0 | 0.05 | 0.17 | 0.17 | 99 | 1005.5 |
| 20260507055300 | 53 | 105 | 1.0 | 2.0 | 0.12 | 0.17 | 0.17 | 99 | 1006.0 |
| 20260507054756 | 53 | 106 | 0.0 | 2.0 | 0.07 | 0.16 | 0.16 | 99 | 1005.7 |
| 20260507054253 | 53 | 98 | 1.0 | 5.0 | 0.00 | 0.15 | 0.15 | 99 | 1005.4 |
| 20260507053751 | 53 | 140 | 4.0 | 6.0 | 0.00 | 0.15 | 0.15 | 99 | 1005.2 |
| 20260507053248 | 53 | 78 | 1.0 | 5.0 | 0.00 | 0.15 | 0.15 | 99 | 1005.3 |
| 20260507052747 | 53 | 61 | 1.0 | 3.0 | 0.00 | 0.15 | 0.15 | 99 | 1005.2 |
| 20260507052243 | 53 | 70 | 1.0 | 2.0 | 0.00 | 0.15 | 0.15 | 99 | 1005.3 |
| 20260507051741 | 53 | 81 | 1.0 | 3.0 | 0.00 | 0.15 | 0.15 | 99 | 1005.2 |
| 20260507051237 | 53 | 121 | 0.0 | 2.0 | 0.05 | 0.15 | 0.15 | 99 | 1005.1 |
| 20260507050734 | 53 | 90 | 1.0 | 2.0 | 0.00 | 0.14 | 0.14 | 99 | 1005.1 |
| 20260507050231 | 54 | 100 | 1.0 | 3.0 | 0.00 | 0.14 | 0.14 | 99 | 1005.1 |
| 20260507045728 | 54 | 76 | 2.0 | 2.0 | 0.00 | 0.14 | 0.14 | 99 | 1005.0 |
| 20260507045224 | 54 | 85 | 1.0 | 2.0 | 0.00 | 0.14 | 0.14 | 99 | 1004.3 |
| 20260507044722 | 55 | 65 | 1.0 | 3.0 | 0.00 | 0.14 | 0.14 | 99 | 1004.7 |
| 20260507044218 | 55 | 77 | 2.0 | 2.0 | 0.00 | 0.14 | 0.14 | 99 | 1004.8 |
| 20260507043714 | 55 | 93 | 1.0 | 2.0 | 0.07 | 0.14 | 0.14 | 99 | 1004.6 |
| 20260507043211 | 55 | 100 | 0.0 | 1.0 | 0.07 | 0.14 | 0.14 | 99 | 1004.7 |
| 20260507042708 | 56 | 113 | 1.0 | 2.0 | 0.12 | 0.13 | 0.13 | 99 | 1005.0 |
| 20260507042202 | 56 | 76 | 2.0 | 3.0 | 0.78 | 0.13 | 0.13 | 99 | 1004.8 |
| 20260507041700 | 56 | 100 | 1.0 | 5.0 | 0.59 | 0.10 | 0.10 | 99 | 1004.0 |
| 20260507041156 | 57 | 156 | 1.0 | 2.0 | 0.00 | 0.00 | 0.00 | 99 | 1006.0 |
| 20260507040653 | 57 | 98 | 0.0 | 0.0 | 0.00 | 0.00 | 0.00 | 99 | 1005.6 |
| 20260507040149 | 57 | 98 | 0.0 | 1.0 | 0.00 | 0.00 | 0.00 | 99 | 1005.4 |
| 20260507035646 | 57 | 89 | 1.0 | 2.0 | 0.00 | 0.49 | 0.49 | 99 | 1005.2 |
| 20260507035142 | 57 | 95 | 0.0 | 0.0 | 0.00 | 0.49 | 0.49 | 99 | 1005.2 |
| 20260507034639 | 57 | 73 | 1.0 | 2.0 | 0.07 | 0.49 | 0.49 | 98 | 1005.3 |
| 20260507034136 | 57 | 104 | 0.0 | 1.0 | 0.19 | 0.49 | 0.49 | 98 | 1005.7 |
| 20260507033635 | 57 | 98 | 1.0 | 1.0 | 0.24 | 0.48 | 0.48 | 98 | 1005.5 |
| 20260507033131 | 58 | 132 | 0.0 | 0.0 | 0.17 | 0.46 | 0.46 | 98 | 1005.5 |
| 20260507032629 | 58 | 169 | 1.0 | 2.0 | 0.00 | 0.43 | 0.43 | 98 | 1005.6 |
| 20260507032124 | 58 | 97 | 1.0 | 3.0 | 0.00 | 0.43 | 0.43 | 98 | 1004.9 |
| 20260507031622 | 58 | 154 | 3.0 | 6.0 | 0.00 | 0.43 | 0.43 | 98 | 1004.9 |
| 20260507031118 | 58 | 74 | 2.0 | 2.0 | 0.00 | 0.43 | 0.43 | 98 | 1004.7 |
| 20260507030615 | 59 | 73 | 1.0 | 2.0 | 0.00 | 0.43 | 0.43 | 98 | 1004.9 |
| 20260507030113 | 59 | 96 | 1.0 | 1.0 | 0.00 | 0.43 | 0.43 | 98 | 1005.0 |
| 20260507025610 | 59 | 97 | 1.0 | 2.0 | 0.00 | 0.43 | 0.43 | 98 | 1004.9 |
| 20260507025107 | 59 | 71 | 3.0 | 3.0 | 0.00 | 0.43 | 0.43 | 98 | 1004.8 |
| 20260507024605 | 59 | 88 | 2.0 | 2.0 | 0.00 | 0.43 | 0.43 | 98 | 1004.8 |
| 20260507024102 | 59 | 72 | 2.0 | 3.0 | 0.00 | 0.43 | 0.43 | 98 | 1005.0 |
| 20260507023557 | 60 | 141 | 1.0 | 2.0 | 0.00 | 0.43 | 0.43 | 98 | 1004.8 |
| 20260507023055 | 60 | 89 | 2.0 | 3.0 | 0.00 | 0.43 | 0.43 | 98 | 1004.3 |
| 20260507022551 | 60 | 96 | 1.0 | 2.0 | 0.00 | 0.43 | 0.43 | 98 | 1004.7 |
| 20260507022046 | 60 | 99 | 0.0 | 1.0 | 0.00 | 0.43 | 0.43 | 98 | 1004.7 |
| 20260507021543 | 60 | 87 | 1.0 | 2.0 | 0.00 | 0.43 | 0.43 | 98 | 1004.5 |
| 20260507021040 | 60 | 84 | 0.0 | 2.0 | 0.00 | 0.43 | 0.43 | 98 | 1004.5 |
| 20260507020538 | 60 | 84 | 1.0 | 2.0 | 0.00 | 0.43 | 0.43 | 98 | 1004.8 |
| 20260507020034 | 60 | 85 | 1.0 | 2.0 | 0.00 | 0.43 | 0.43 | 98 | 1004.7 |
| 20260507015532 | 61 | 87 | 0.0 | 1.0 | 0.00 | 0.43 | 0.43 | 98 | 1004.7 |
| 20260507015029 | 61 | 90 | 0.0 | 2.0 | 0.00 | 0.43 | 0.43 | 98 | 1004.7 |
| 20260507014526 | 61 | 84 | 0.0 | 0.0 | 0.00 | 0.43 | 0.43 | 98 | 1004.7 |
| 20260507014021 | 61 | 88 | 0.0 | 0.0 | 0.00 | 0.43 | 0.43 | 98 | 1004.2 |
| 20260507013518 | 61 | 79 | 2.0 | 2.0 | 0.00 | 0.43 | 0.43 | 98 | 1003.8 |
| 20260507013016 | 62 | 89 | 0.0 | 1.0 | 0.00 | 0.43 | 0.43 | 97 | 1004.3 |
| 20260507012513 | 62 | 84 | 1.0 | 1.0 | 0.00 | 0.43 | 0.43 | 97 | 1004.6 |
| 20260507012009 | 62 | 94 | 0.0 | 0.0 | 0.00 | 0.43 | 0.43 | 97 | 1004.9 |
| 20260507011506 | 62 | 105 | 0.0 | 0.0 | 0.07 | 0.43 | 0.43 | 97 | 1004.7 |
| 20260507011002 | 62 | 98 | 0.0 | 0.0 | 0.07 | 0.43 | 0.43 | 97 | 1004.6 |
| 20260507010456 | 62 | 102 | 1.0 | 1.0 | 0.00 | 0.42 | 0.42 | 97 | 1004.9 |
| 20260507005954 | 63 | 110 | 1.0 | 2.0 | 0.00 | 0.42 | 0.42 | 96 | 1005.1 |
| 20260507005451 | 63 | 107 | 0.0 | 1.0 | 0.00 | 0.42 | 0.42 | 96 | 1005.0 |
| 20260507004947 | 63 | 140 | 0.0 | 0.0 | 0.12 | 0.42 | 0.42 | 96 | 1004.9 |
| 20260507004444 | 63 | 140 | 0.0 | 2.0 | 0.28 | 0.42 | 0.42 | 96 | 1004.6 |
| 20260507003942 | 63 | 138 | 0.0 | 0.0 | 0.59 | 0.40 | 0.40 | 96 | 1004.5 |
| 20260507003437 | 63 | 123 | 0.0 | 0.0 | 0.59 | 0.36 | 0.36 | 95 | 1004.3 |
| 20260507002932 | 63 | 143 | 0.0 | 2.0 | 0.31 | 0.29 | 0.29 | 95 | 1004.5 |
| 20260507002428 | 63 | 191 | 2.0 | 3.0 | 0.19 | 0.25 | 0.25 | 94 | 1004.3 |
| 20260507001926 | 64 | 155 | 1.0 | 1.0 | 0.47 | 0.24 | 0.24 | 93 | 1004.1 |
| 20260507001422 | 64 | 116 | 0.0 | 0.0 | 0.28 | 0.20 | 0.20 | 91 | 1003.8 |
| 20260507000920 | 64 | 143 | 1.0 | 3.0 | 0.05 | 0.16 | 0.16 | 89 | 1004.0 |
| 20260507000415 | 64 | 118 | 0.0 | 0.0 | 0.00 | 0.15 | 0.15 | 90 | 1003.9 |
| 20260506235911 | 64 | 127 | 0.0 | 1.0 | 0.00 | 0.15 | 0.15 | 90 | 1003.7 |
| 20260506235409 | 64 | 142 | 0.0 | 3.0 | 0.00 | 0.15 | 0.15 | 91 | 1004.2 |
| 20260506234904 | 64 | 178 | 1.0 | 2.0 | 0.00 | 0.15 | 0.15 | 90 | 1004.2 |
| 20260506234402 | 65 | 206 | 4.0 | 5.0 | 0.07 | 0.15 | 0.15 | 88 | 1004.1 |
| 20260506233859 | 66 | 172 | 1.0 | 3.0 | 0.00 | 0.14 | 0.14 | 86 | 1003.8 |
| 20260506233355 | 66 | 167 | 2.0 | 3.0 | 0.00 | 0.14 | 0.14 | 86 | 1003.8 |
| 20260506232852 | 66 | 136 | 0.0 | 0.0 | 0.00 | 0.14 | 0.14 | 85 | 1003.8 |
| 20260506232348 | 66 | 164 | 1.0 | 2.0 | 0.00 | 0.14 | 0.14 | 84 | 1003.7 |
| 20260506231844 | 67 | 151 | 0.0 | 0.0 | 0.00 | 0.14 | 0.14 | 83 | 1003.6 |
| 20260506231342 | 67 | 142 | 0.0 | 0.0 | 0.00 | 0.14 | 0.14 | 82 | 1003.6 |
| 20260506230840 | 67 | 136 | 0.0 | 0.0 | 0.00 | 0.14 | 0.14 | 82 | 1003.2 |
| 20260506230336 | 67 | 164 | 0.0 | 1.0 | 0.00 | 0.14 | 0.14 | 82 | 1003.2 |
| 20260506225832 | 67 | 147 | 0.0 | 1.0 | 0.00 | 0.14 | 0.14 | 82 | 1003.3 |
| 20260506225330 | 67 | 139 | 0.0 | 3.0 | 0.00 | 0.14 | 0.14 | 82 | 1003.5 |
| 20260506224826 | 67 | 121 | 0.0 | 2.0 | 0.00 | 0.14 | 0.14 | 82 | 1003.5 |
| 20260506224324 | 67 | 186 | 1.0 | 2.0 | 0.00 | 0.14 | 0.14 | 82 | 1003.3 |
| 20260506223820 | 67 | 137 | 1.0 | 2.0 | 0.00 | 0.14 | 0.14 | 82 | 1003.5 |
| 20260506223315 | 67 | 118 | 2.0 | 5.0 | 0.00 | 0.14 | 0.14 | 82 | 1003.3 |
| 20260506222813 | 67 | 169 | 2.0 | 2.0 | 0.00 | 0.14 | 0.14 | 82 | 1003.4 |
| 20260506222308 | 68 | 130 | 0.0 | 3.0 | 0.00 | 0.14 | 0.14 | 81 | 1003.3 |
| 20260506221807 | 68 | 144 | 0.0 | 1.0 | 0.00 | 0.14 | 0.14 | 81 | 1003.0 |
| 20260506221304 | 68 | 142 | 0.0 | 1.0 | 0.00 | 0.14 | 0.14 | 82 | 1003.1 |
| 20260506220801 | 68 | 122 | 0.0 | 1.0 | 0.00 | 0.14 | 0.14 | 81 | 1003.5 |
| 20260506220256 | 68 | 113 | 0.0 | 2.0 | 0.00 | 0.14 | 0.14 | 81 | 1003.4 |
| 20260506215753 | 68 | 170 | 1.0 | 3.0 | 0.00 | 0.14 | 0.14 | 80 | 1003.4 |
| 20260506215249 | 69 | 111 | 1.0 | 2.0 | 0.00 | 0.14 | 0.14 | 78 | 1003.0 |
| 20260506214745 | 69 | 105 | 0.0 | 2.0 | 0.00 | 0.14 | 0.14 | 79 | 1003.2 |
| 20260506214242 | 69 | 120 | 0.0 | 1.0 | 0.00 | 0.14 | 0.14 | 81 | 1002.9 |
| 20260506213740 | 69 | 165 | 1.0 | 2.0 | 0.00 | 0.14 | 0.14 | 80 | 1003.2 |
| 20260506213232 | 68 | 164 | 0.0 | 2.0 | 0.00 | 0.14 | 0.14 | 80 | 1002.9 |
| 20260506212729 | 68 | 141 | 0.0 | 1.0 | 0.00 | 0.14 | 0.14 | 80 | 1003.2 |
| 20260506212224 | 68 | 113 | 0.0 | 1.0 | 0.00 | 0.14 | 0.14 | 81 | 1003.0 |
| 20260506211720 | 68 | 85 | 0.0 | 1.0 | 0.00 | 0.14 | 0.14 | 81 | 1003.2 |
| 20260506211216 | 68 | 140 | 0.0 | 1.0 | 0.00 | 0.14 | 0.14 | 82 | 1003.2 |
| 20260506210713 | 67 | 146 | 0.0 | 1.0 | 0.00 | 0.14 | 0.14 | 82 | 1003.2 |
| 20260506210210 | 67 | 166 | 1.0 | 2.0 | 0.00 | 0.14 | 0.14 | 83 | 1003.1 |
| 20260506205707 | 66 | 167 | 1.0 | 5.0 | 0.00 | 0.14 | 0.14 | 83 | 1003.0 |
| 20260506205202 | 66 | 144 | 0.0 | 3.0 | 0.00 | 0.14 | 0.14 | 84 | 1003.0 |
| 20260506204700 | 66 | 101 | 0.0 | 2.0 | 0.00 | 0.14 | 0.14 | 83 | 1002.8 |
| 20260506204156 | 66 | 131 | 0.0 | 2.0 | 0.00 | 0.14 | 0.14 | 85 | 1002.8 |
| 20260506203655 | 66 | 121 | 1.0 | 1.0 | 0.00 | 0.14 | 0.14 | 83 | 1002.8 |
| 20260506203152 | 66 | 146 | 3.0 | 5.0 | 0.00 | 0.14 | 0.14 | 83 | 1002.9 |
| 20260506202650 | 66 | 143 | 1.0 | 3.0 | 0.00 | 0.14 | 0.14 | 83 | 1002.8 |
| 20260506202145 | 67 | 224 | 5.0 | 6.0 | 0.00 | 0.14 | 0.14 | 81 | 1002.8 |
| 20260506201642 | 67 | 150 | 1.0 | 3.0 | 0.00 | 0.14 | 0.14 | 83 | 1002.7 |
| 20260506201139 | 66 | 149 | 0.0 | 3.0 | 0.00 | 0.14 | 0.14 | 83 | 1002.7 |
| 20260506200636 | 66 | 138 | 0.0 | 2.0 | 0.00 | 0.14 | 0.14 | 83 | 1003.0 |
| 20260506200133 | 66 | 166 | 1.0 | 3.0 | 0.00 | 0.14 | 0.14 | 84 | 1002.7 |
| 20260506195629 | 66 | 198 | 3.0 | 5.0 | 0.00 | 0.14 | 0.14 | 82 | 1003.0 |
| 20260506195125 | 66 | 142 | 2.0 | 6.0 | 0.00 | 0.14 | 0.14 | 83 | 1002.7 |
| 20260506194623 | 66 | 157 | 3.0 | 5.0 | 0.00 | 0.14 | 0.14 | 83 | 1003.0 |
| 20260506194119 | 66 | 156 | 2.0 | 5.0 | 0.00 | 0.14 | 0.14 | 83 | 1002.8 |
| 20260506193617 | 65 | 117 | 1.0 | 6.0 | 0.00 | 0.14 | 0.14 | 84 | 1002.6 |
| 20260506193114 | 65 | 167 | 2.0 | 5.0 | 0.00 | 0.14 | 0.14 | 85 | 1002.8 |
| 20260506192611 | 65 | 139 | 2.0 | 5.0 | 0.00 | 0.14 | 0.14 | 84 | 1003.0 |
| 20260506192107 | 66 | 178 | 3.0 | 3.0 | 0.00 | 0.14 | 0.14 | 83 | 1003.1 |
| 20260506191604 | 66 | 194 | 1.0 | 5.0 | 0.00 | 0.14 | 0.14 | 83 | 1002.9 |
| 20260506191059 | 66 | 114 | 1.0 | 5.0 | 0.00 | 0.14 | 0.14 | 83 | 1003.1 |
| 20260506190557 | 66 | 116 | 1.0 | 3.0 | 0.00 | 0.14 | 0.14 | 84 | 1003.2 |
| 20260506190054 | 65 | 133 | 0.0 | 3.0 | 0.00 | 0.14 | 0.14 | 86 | 1003.0 |
| 20260506185551 | 64 | 172 | 0.0 | 2.0 | 0.00 | 0.14 | 0.14 | 86 | 1003.5 |